Observations

BIA Manual Entry


Date Temp Humidity Rainfall Dew Point Wind Direction Wind Speed Wind Pressure Condition Visibility
2025-06-09 10:00:57 29 77 0.00 25 200 11.4 1009 Partly Cloudy (Day) 20km
2025-06-09 09:00:59 28 84 0.00 25 190 11.4 1010 Partly Cloudy (Day) 15KM
2025-06-09 07:58:56 26 93 0 25 220 5.7 1010 Cloudy 10 KM
2025-06-09 06:59:53 25 97 0 25 220 3.8 1009 Mist 8 KM
2025-06-09 05:58:51 25 97 0 25 230 3.8 1009 Mist 9 KM
2025-06-09 04:59:44 26 97 0 25 170 5.7 1008 Mist 10 KM
2025-06-09 03:59:47 25 97 0 25 220 3.8 1008 Mist 10 KM
2025-06-09 03:00:13 25 96 0 25 230 1.6 1009 Mist 10 KM
2025-06-09 02:00:08 26 97 25 160 5.7 1009 Partly Cloudy (Night) 10 KM
2025-06-09 01:00:09 26 96 25 210 1.9 1010 Partly Cloudy (Night) 10 KM
2025-06-08 23:59:33 26 93 25 190 3.8 1010 Partly Cloudy (Night) 10 KM
2025-06-08 23:59:20 26 93 190 3 Partly Cloudy (Night)
2025-06-08 22:58:52 26 94 25 00 0.0 1010 Partly Cloudy (Night) 10 KM
2025-06-08 21:59:08 26 93 0.0 25 130 5.7 1010 Partly Cloudy (Night) 10 KM
2025-06-08 21:00:39 26 92 25 150 1.9 1010 Partly Cloudy (Night) 10KM
2025-06-08 20:06:31 27 86 25 240 3.8 1009 Partly Cloudy (Night) 10KM
2025-06-08 18:59:53 28 84 25 260 5.7 1008 Partly Cloudy (Night) 10KM
2025-06-08 18:00:43 28 81 25 230 7.6 1008 Partly Cloudy (Day) 15KM
2025-06-08 16:58:18 28 82 0.00 25 290 7.6 1007 Partly Cloudy (Day) 20KM
2025-06-08 15:58:59 29 80 0.00 25 270 5.7 1007 Partly Cloudy (Day) 15KM
2025-06-08 14:57:06 28 80 0.00 24 240 5.7 1008 Partly Cloudy (Day) 15KM
2025-06-08 13:59:52 27 86 0.00 24 240 7.6 1008 Rain 10KM
2025-06-08 12:59:21 26 93 0 24 150 5.7 1009 Rain 10 KM
2025-06-08 12:00:58 25 96 0 24 130 7.6 1010 Thundershowers 9 KM
2025-06-08 11:01:48 24 97 0 23 270 17.1 1011 Thundershowers 5 KM